Weather History for Perry, IA

Change the Weather History Date:

Friday, October 12, 2012

  Actual Average Record
Temperature  
Mean Temperature 48 °F -  
Max Temperature 62 °F 64 °F 88 °F (1956)
Min Temperature 33 °F 38 °F 20 °F (1987)
Degree Days  
Heating Degree Days 18    
Moisture  
Dew Point 21 °F    
Average Humidity 42    
Maximum Humidity 82    
Minimum Humidity 12    
Precipitation  
Precipitation 0.01 in - - ()
Sea Level Pressure  
Sea Level Pressure 30.30 in    
Wind  
Wind Speed 9 mph (East)    
Max Wind Speed 21 mph    
Max Gust Speed 26 mph    
Visibility 10 miles    
Events Rain    
Averages and records for this station are not official NWS values.
T = Trace of Precipitation, MM = Missing Value Source: NWS Daily Summary

Daily Weather History Graph

Daily Weather History Graph

Search for Another Location

Airport:

Trip Planner

Search our weather history database for the weather conditions in past years. The results will help you decide how hot, cold, wet, or windy it might be!

Date:

Astronomy

Oct. 12, 2012 Rise Set
Actual Time 7:26 AM CDT 6:39 PM CDT
Civil Twilight 6:58 AM CDT 7:07 PM CDT
Nautical Twilight 6:25 AM CDT 7:39 PM CDT
Astronomical Twilight 5:53 AM CDT 8:11 PM CDT
Moon 4:07 AM CDT (10/12) 4:51 PM CDT (10/12)
Length of Visible Light 12h 08m
Length of Day
11h 13m
Waning Crescent, 10% of the Moon is Illuminated
Oct 12
Waning Crescent
Oct 15
New
Oct 21
First Quarter
Oct 29
Full
Nov 6
Last Quarter

Hourly Weather History & Observations

Time (CDT) Temp. Windchill Dew Point Humidity Pressure Visibility Wind Dir Wind Speed Gust Speed Precip Events Conditions
12:15 AM 41.7 °F 38.0 °F 22.1 °F 46% 30.36 in 10.0 mi North 5.8 mph - N/A   Mostly Cloudy
12:35 AM 40.5 °F 36.5 °F 22.1 °F 48% 30.37 in 10.0 mi NNE 5.8 mph - N/A   Mostly Cloudy
12:55 AM 38.8 °F 35.4 °F 22.1 °F 51% 30.37 in 10.0 mi NNE 4.6 mph - N/A   Clear
1:15 AM 38.7 °F 32.9 °F 22.1 °F 51% 30.38 in 10.0 mi North 8.1 mph - N/A   Clear
1:35 AM 38.3 °F 33.9 °F 21.9 °F 52% 30.38 in 10.0 mi North 5.8 mph - N/A   Clear
1:55 AM 37.0 °F 32.4 °F 21.7 °F 54% 30.38 in 10.0 mi North 5.8 mph - N/A   Clear
2:15 AM 36.7 °F 32.0 °F 21.9 °F 55% 30.38 in 10.0 mi North 5.8 mph - N/A   Clear
2:35 AM 35.1 °F 31.0 °F 21.9 °F 59% 30.38 in 10.0 mi North 4.6 mph - N/A   Clear
3:15 AM 34.7 °F 28.8 °F 21.7 °F 59% 30.38 in 10.0 mi NNE 6.9 mph - N/A   Clear
3:35 AM 35.2 °F 29.5 °F 21.0 °F 56% 30.37 in 10.0 mi NNE 6.9 mph - N/A   Clear
3:55 AM 34.0 °F 28.8 °F 20.5 °F 58% 30.37 in 10.0 mi NNE 5.8 mph - N/A   Clear
4:15 AM 33.8 °F 27.7 °F 21.0 °F 60% 30.37 in 10.0 mi NNE 6.9 mph - N/A   Clear
4:35 AM 34.3 °F 29.2 °F 20.8 °F 58% 30.38 in 10.0 mi NE 5.8 mph - N/A   Clear
4:55 AM 33.3 °F 27.9 °F 20.8 °F 60% 30.38 in 10.0 mi NE 5.8 mph - N/A   Clear
5:15 AM 34.7 °F 28.8 °F 21.2 °F 58% 30.37 in 10.0 mi NE 6.9 mph - N/A   Clear
5:55 AM 36.5 °F 29.7 °F 21.2 °F 54% 30.37 in 10.0 mi NE 9.2 mph - N/A   Clear
6:15 AM 36.1 °F 29.9 °F 21.2 °F 55% 30.38 in 10.0 mi ENE 8.1 mph - N/A   Clear
6:35 AM 36.0 °F 29.6 °F 21.4 °F 55% 30.38 in 10.0 mi NE 8.1 mph - N/A   Clear
6:55 AM 35.6 °F 29.9 °F 21.7 °F 57% 30.38 in 10.0 mi ENE 6.9 mph - N/A   Clear
7:15 AM 35.2 °F 29.5 °F 21.9 °F 58% 30.39 in 10.0 mi ENE 6.9 mph - N/A   Clear
7:35 AM 34.9 °F 30.8 °F 21.9 °F 59% 30.40 in 10.0 mi ENE 4.6 mph - N/A   Clear
7:55 AM 35.6 °F 30.7 °F 21.9 °F 58% 30.40 in 10.0 mi East 5.8 mph - N/A   Clear
8:15 AM 37.4 °F 31.4 °F 22.1 °F 54% 30.40 in 10.0 mi East 8.1 mph - N/A   Clear
8:35 AM 38.5 °F 31.1 °F 21.9 °F 51% 30.40 in 10.0 mi East 11.5 mph - N/A   Clear
9:15 AM 41.7 °F 34.1 °F 21.9 °F 45% 30.40 in 10.0 mi East 15.0 mph - N/A   Clear
9:35 AM 43.9 °F 36.2 °F 21.2 °F 41% 30.40 in 10.0 mi East 17.3 mph 23.0 mph N/A   Clear
9:55 AM 46.2 °F 39.3 °F 20.1 °F 35% 30.39 in 10.0 mi ESE 17.3 mph 21.9 mph N/A   Clear
10:15 AM 47.7 °F - 18.7 °F 32% 30.38 in 10.0 mi ESE 20.7 mph 25.3 mph N/A   Clear
10:35 AM 48.6 °F - 18.3 °F 30% 30.38 in 10.0 mi ESE 16.1 mph - N/A   Clear
10:55 AM 50.2 °F - 17.6 °F 28% 30.38 in 10.0 mi ESE 19.6 mph 26.5 mph N/A   Clear
11:15 AM 50.7 °F - 17.1 °F 26% 30.38 in 10.0 mi ESE 13.8 mph 25.3 mph N/A   Clear
11:35 AM 51.6 °F - 15.8 °F 24% 30.37 in 10.0 mi ESE 16.1 mph 20.7 mph N/A   Clear
11:55 AM 53.1 °F - 13.6 °F 21% 30.37 in 10.0 mi ESE 15.0 mph 23.0 mph N/A   Clear
12:15 PM 53.6 °F - 13.8 °F 21% 30.36 in 10.0 mi ESE 16.1 mph - N/A   Clear
12:35 PM 54.9 °F - 12.6 °F 19% 30.35 in 10.0 mi SE 13.8 mph 20.7 mph N/A   Clear
12:55 PM 56.1 °F - 11.5 °F 17% 30.34 in 10.0 mi SE 18.4 mph - N/A   Clear
1:35 PM 57.0 °F - 12.6 °F 17% 30.30 in 10.0 mi ESE 16.1 mph - N/A   Clear
1:55 PM 58.3 °F - 10.9 °F 15% 30.29 in 10.0 mi SE 16.1 mph - N/A   Clear
2:15 PM 59.0 °F - 9.5 °F 14% 30.28 in 10.0 mi SE 15.0 mph 24.2 mph N/A   Clear
2:35 PM 60.1 °F - 9.3 °F 13% 30.25 in 10.0 mi ESE 17.3 mph - N/A   Unknown
2:55 PM 59.9 °F - 9.0 °F 13% 30.24 in 10.0 mi ESE 15.0 mph 19.6 mph N/A   Unknown
3:15 PM 61.0 °F - 8.8 °F 13% 30.23 in 10.0 mi ESE 15.0 mph 19.6 mph N/A   Unknown
3:35 PM 61.7 °F - 8.6 °F 12% 30.22 in 10.0 mi SE 13.8 mph - N/A   Clear
3:55 PM 62.6 °F - 8.4 °F 12% 30.23 in 10.0 mi SE 15.0 mph 18.4 mph N/A   Scattered Clouds
4:15 PM 62.1 °F - 9.7 °F 13% 30.21 in 10.0 mi SE 13.8 mph 19.6 mph N/A   Mostly Cloudy
4:35 PM 61.3 °F - 10.4 °F 13% 30.19 in 10.0 mi SE 12.7 mph 19.6 mph N/A   Scattered Clouds
5:15 PM 61.3 °F - 12.4 °F 15% 30.18 in 10.0 mi SE 12.7 mph 18.4 mph N/A   Scattered Clouds
5:55 PM 60.3 °F - 13.6 °F 16% 30.14 in 10.0 mi ESE 11.5 mph - N/A   Overcast
6:15 PM 60.3 °F - 14.5 °F 17% 30.14 in 10.0 mi ESE 15.0 mph - N/A   Overcast
6:35 PM 60.4 °F - 16.2 °F 18% 30.13 in 10.0 mi SE 11.5 mph - N/A   Overcast
6:55 PM 55.2 °F - 33.8 °F 44% 30.13 in 10.0 mi SE 10.4 mph - 0.01 in Rain Light Rain
7:15 PM 55.4 °F - 32.4 °F 42% 30.12 in 10.0 mi SSE 12.7 mph - N/A   Overcast
8:58 PM 51.8 °F - 44.6 °F 76% 30.12 in 10.0 mi SE 8.1 mph - N/A   Overcast
9:38 PM 51.8 °F - 42.8 °F 71% 30.09 in 10.0 mi ESE 12.7 mph - N/A   Overcast
9:59 PM 51.8 °F - 44.6 °F 76% 30.09 in 10.0 mi SE 10.4 mph - N/A   Overcast
10:19 PM 51.8 °F - 44.6 °F 76% 30.09 in 10.0 mi SE 10.4 mph - N/A   Overcast
10:39 PM 51.8 °F - 44.6 °F 76% 30.08 in 10.0 mi SSE 9.2 mph - N/A   Overcast
11:19 PM 51.8 °F - 44.6 °F 76% 30.05 in 10.0 mi SSE 12.7 mph - N/A   Overcast
11:39 PM 51.8 °F - 46.4 °F 82% 30.05 in 10.0 mi SSE 11.5 mph - N/A   Overcast